STARLINK-32150, 60294

Orbit data source: Space-Track

STARLINK-32150, 60294 is a payload satellite owned by SpaceX/Seattle (US) in LEO that was launched on Sun, 28 Jul 2024 UTC via an FALCON 9 launch vehicle from the Air Force Eastern Test Range (AFETR). Payload-class satellites include a variety of spacecraft equipped with specific instruments for various scientific and technological missions. These include communications satellites like Starlink; space stations such as the ISS; scientific satellites like the Hubble; Earth observation satellites from companies like Planet Labs, Umbra, and HawkEye 360; GPS; miniature CubeSats for education and research; and military/defense satellites.

Loading next visibility...
Identifier
60294, 2024-132S
Orbit
LEO
Country
Flag of USUS
Related business
Manufacturer
SpaceX/Seattle
Mission
Operational Commercial Communications
Bus & Motor
STARLINK V2M, Unknown motor
Mass
730 kg wet, ~700 kg dry
Launch date (UTC)
2024-07-28 (2 years ago)
Launch vehicle
FALCON 9
Launch site
Air Force Eastern Test Range (AFETR)
Object type
Payload
Rocket body
Debris
Shape & HBR
Box + 2 Pan, 17.7 m
Radar Cross Section
33.884 m², Large (>1 m²)

Expand to show TLE details & history
Last TLE update: 4 hours ago

TLE from 4 hours ago
0 STARLINK-32150
1 60294U 24132S   26132.21514997 -.00000379  00000-0 -65564-6 0  9998
2 60294  53.1611 117.5572 0001847  87.1941 272.9271 15.30189339101282
Epoch: 2026-05-12T05:09Z
TLE epoch observation values (Epoch: 2026-05-12T05:09:48.957Z)
Latitude
-0.00003°
Longitude
170.11046°
Altitude
476.082 km
Speed
7.629 km/s
True Right ascension
07h 50m 13s
True Declination
0° 00' 00"
Sunlit
Object was in daylight at epoch
Visualization orbit readout
Latitude
Unknown
Longitude
Unknown
Altitude
Unknown
Speed
Unknown
Apparent Right ascension
Unknown
Apparent Declination
Unknown
Sunlit
N/A
Visualization observer readout
Local Sidereal Time
17:21:52
Azimuth
Unknown
Elevation
Unknown
Doppler factor
Unknown
Orbital elements
Apogee altitude
476.769 km
Perigee altitude
474.237 km
Semi-major axis
6,853.64 km
Eccentricity
0.00018
Inclination
53.1611°
RAAN
117.5572°
Arg. of periapsis
87.1941°
True anomaly
272.90596°
Mean anomaly
272.9271°
Eccentric anomaly
272.91653°
Mean motion
3.82526 °/min
Orbital period
94.11 mins
BSTAR
-6.5564e-7
Loading maneuver chart data...
Computing Atmospheric mass density...
Loading historical data...
Loading historical data...
Loading historical data...
Loading historical data...
Loading historical data...
Loading historical data...
Loading historical data...

Documentation

Showing up to 5 results
|